[[{"header":{"parameterUnit":"m.s-1","parameterCategory":1,"la1":30.2991,"la2":30.254,"lo1":-89.0895,"lo2":-89.0444,"dy":0.0017,"dx":0.0017,"nx":28,"ny":28,"refTime":"2024-07-24T09:00:00:Z","depth":0,"parameterNumber":2,"parameterNumberName":"U-component_of_WINDS"},"data":[0,0,0,0,0,0,0,0,0,0,0,0,0,0,0,0,0,0,0,0,0,0,0,0,0,0,0,0,0,0,0,0,0,0,0,0,0,0,0,0,0,0,0,0,0,0,0,0,0,0,0,0,0,0,0,0,0,0,0.2326,0.2327,0,0.234,0.234,0.234,0.2358,0.2358,0.2358,0.2359,0.2372,0.2372,0.2372,0,0,0,0,0,0,0,0,0,0,0,0,0,0.2317,0.2317,0.2326,0.2327,0.2327,0.234,0.234,0.234,0.2358,0.2358,0.2358,0.2359,0.2372,0.2372,0.2372,0,0,0,0,0,0,0,0,0,0,0,0,0,0.2325,0.2317,0.2326,0.2337,0.2338,0.234,0.234,0.234,0.2358,0.2358,0.2358,0.2359,0.2372,0.2372,0.2372,0.2363,0,0,0.2372,0.2372,0,0,0,0,0,0,0,0,0.2324,0.2325,0.2335,0.2336,0.2338,0.2347,0.2341,0.2348,0.2357,0.235,0.2359,0.2359,0.2363,0.2364,0.2365,0.2364,0.2365,0.2372,0.2372,0.2372,0.2372,0,0,0,0,0,0,0,0.2324,0.2325,0.2332,0.2335,0.2337,0.2342,0.2343,0.2343,0.2354,0.2351,0.2352,0.2354,0.2364,0.2365,0.2366,0.2365,0.2372,0.2372,0.2372,0.2372,0.2359,0.2359,0,0,0,0,0,0,0.2322,0.2324,0.2331,0.2332,0.2332,0.2341,0.2343,0.2344,0.2354,0.2356,0.2353,0.2354,0.2365,0.2366,0.2366,0.2358,0.2372,0.2372,0.2372,0.2359,0.2359,0.2358,0,0,0,0,0,0,0.2321,0.2322,0.2331,0.2328,0.233,0.2341,0.2342,0.2344,0.2345,0.2356,0.2358,0.2352,0.2365,0.2366,0.2364,0.2359,0.2372,0.2372,0.236,0.2359,0.2359,0.2341,0,0,0,0,0,0,0.2321,0.2322,0.2319,0.2328,0.233,0.2328,0.2341,0.2344,0.2346,0.2347,0.2356,0.2358,0.2366,0.2364,0.2365,0.2359,0.2373,0.236,0.236,0.2359,0.2342,0.234,0.2338,0,0,0,0,0,0.2321,0.2313,0.2318,0.2319,0.2326,0.2328,0.2329,0.2338,0.2345,0.2342,0.2349,0.2357,0.236,0.2364,0.2364,0.2359,0.2361,0.236,0.2359,0.2343,0.234,0.2338,0,0,0,0,0,0,0.2301,0.2314,0.232,0.2315,0.232,0.2331,0.2327,0.2335,0.2338,0.2339,0.2351,0.2353,0.235,0.2354,0.2359,0.2352,0.2362,0.2361,0.2349,0.2347,0.2345,0.2344,0.2373,0,0,0,0,0,0.2297,0.2297,0.2308,0.2303,0.2305,0.2316,0.2317,0.2324,0.2329,0.2332,0.2338,0.2344,0.2346,0.2347,0.2349,0.2343,0.2346,0.234,0.2338,0.2336,0.2335,0.2334,0.2331,0.2355,0.2355,0.2355,0,0,0.2287,0.2294,0.2293,0.2299,0.2304,0.2304,0.2317,0.2317,0.2317,0.2331,0.233,0.2336,0.2342,0.2339,0.2338,0.2342,0.2329,0.2335,0.2334,0.2333,0.2332,0.233,0.2328,0.2355,0.2355,0.2355,0,0,0.2269,0.2274,0.227,0.2275,0.2282,0.229,0.2289,0.2299,0.2303,0.2302,0.2313,0.2314,0.2317,0.2322,0.2325,0.231,0.2318,0.2311,0.23,0.2298,0.2296,0.2295,0.229,0.2288,0.231,0.231,0.231,0,0.2255,0.2256,0.2267,0.2267,0.2269,0.2283,0.228,0.2284,0.2292,0.2293,0.2299,0.2304,0.2309,0.2308,0.2304,0.2306,0.2306,0.231,0.2296,0.2294,0.2293,0.2289,0.2287,0.2309,0.2309,0.2309,0.2309,0,0.2239,0.224,0.2236,0.2244,0.2246,0.2244,0.2256,0.2257,0.2264,0.2271,0.2271,0.2278,0.2283,0.2283,0.229,0.2283,0.2286,0.2293,0.2303,0.2289,0.2286,0.2284,0.2308,0.2308,0.2308,0.2308,0,0,0.2208,0.2223,0.2222,0.2226,0.2236,0.2237,0.2236,0.2241,0.2242,0.2247,0.2247,0.225,0.2258,0.2261,0.2269,0.2267,0.2257,0.2275,0.2276,0.2272,0.225,0.2244,0.2242,0.2262,0.2262,0.2262,0.225,0,0.2192,0.2191,0.2202,0.2198,0.2199,0.2214,0.2213,0.2219,0.2227,0.2229,0.2237,0.2239,0.2248,0.2251,0.225,0.2258,0.2252,0.2259,0.2263,0.2263,0.226,0.224,0.2234,0.2222,0.2248,0.2248,0.2248,0,0.2172,0.2177,0.2174,0.2185,0.2186,0.2185,0.2192,0.2194,0.2202,0.2207,0.2211,0.2221,0.2222,0.2231,0.2233,0.2237,0.2239,0.2244,0.2244,0.2244,0.2254,0.224,0.2218,0.2216,0.2245,0.2246,0.2246,0,0.215,0.2156,0.2155,0.2158,0.2171,0.2171,0.2176,0.2185,0.2188,0.2193,0.2195,0.2201,0.2204,0.2208,0.2219,0.2225,0.222,0.223,0.2225,0.2225,0.2222,0.2222,0.22,0.2224,0.2224,0.2224,0.2224,0,0.2131,0.2128,0.2145,0.2145,0.2143,0.2156,0.2154,0.2161,0.2168,0.217,0.2183,0.2184,0.2198,0.2201,0.221,0.2211,0.2212,0.2217,0.2219,0.2215,0.2215,0.2217,0.2218,0.2224,0.2224,0.2224,0.2224,0,0.2105,0.2116,0.2116,0.213,0.2133,0.2131,0.2142,0.2143,0.2151,0.2153,0.2154,0.2167,0.2172,0.2184,0.2191,0.2197,0.2195,0.2199,0.2192,0.2194,0.2188,0.2188,0.2166,0.2164,0.2189,0.2189,0.2189,0,0.2091,0.209,0.2103,0.2105,0.211,0.2113,0.2117,0.213,0.2133,0.2143,0.2143,0.2148,0.2153,0.216,0.217,0.2177,0.2181,0.2173,0.2182,0.2179,0.2181,0.2181,0.2182,0.2171,0.217,0.217,0.217,0,0.2066,0.2073,0.2077,0.2083,0.2087,0.2093,0.2099,0.21,0.2116,0.2119,0.2124,0.2128,0.2136,0.2142,0.215,0.2156,0.2166,0.2167,0.2167,0.2163,0.2159,0.2161,0.2187,0.2167,0.2168,0.2168,0.2168,0.2168,0.2047,0.2046,0.2056,0.2061,0.2067,0.2074,0.2075,0.2084,0.2089,0.2096,0.2104,0.2109,0.2119,0.213,0.2136,0.214,0.2145,0.2144,0.2144,0.2143,0.2142,0.2158,0.2142,0.2142,0.2142,0.2142,0.2142,0,0.2023,0.203,0.2034,0.2043,0.2047,0.2057,0.2065,0.2068,0.2071,0.208,0.2085,0.2091,0.2098,0.2109,0.2117,0.2118,0.2122,0.2119,0.2119,0.2121,0.2136,0.2137,0.2115,0.2115,0.2115,0.2115,0.2115,0.2115,0.201,0.2011,0.2018,0.2023,0.203,0.2035,0.2039,0.2045,0.2052,0.2058,0.2064,0.2072,0.2082,0.209,0.2097,0.21,0.2102,0.2097,0.2102,0.2117,0.2119,0.2122,0.2122,0.2098,0.2098,0.2086,0.2086,0.2086]},{"header":{"parameterUnit":"m.s-1","parameterCategory":1,"la1":30.2991,"la2":30.254,"lo1":-89.0895,"lo2":-89.0444,"dy":0.0017,"dx":0.0017,"nx":28,"ny":28,"refTime":"2024-07-24T09:00:00:Z","depth":0,"parameterNumber":3,"parameterNumberName":"V-component_of_WINDS"},"data":[0,0,0,0,0,0,0,0,0,0,0,0,0,0,0,0,0,0,0,0,0,0,0,0,0,0,0,0,0,0,0,0,0,0,0,0,0,0,0,0,0,0,0,0,0,0,0,0,0,0,0,0,0,0,0,0,0,0,-2.0965,-2.0966,0,-2.0999,-2.0999,-2.0999,-2.0983,-2.0982,-2.0981,-2.098,-2.1012,-2.1014,-2.1016,0,0,0,0,0,0,0,0,0,0,0,0,0,-2.0885,-2.0887,-2.0965,-2.0966,-2.0966,-2.0998,-2.0999,-2.0999,-2.0983,-2.0982,-2.0981,-2.098,-2.1012,-2.1014,-2.1016,0,0,0,0,0,0,0,0,0,0,0,0,0,-2.0919,-2.0887,-2.0965,-2.0962,-2.0962,-2.0998,-2.0999,-2.0999,-2.0983,-2.0982,-2.0981,-2.098,-2.1011,-2.1014,-2.1016,-2.1057,0,0,-2.1024,-2.1025,0,0,0,0,0,0,0,0,-2.0917,-2.0922,-2.0962,-2.0962,-2.0962,-2.0985,-2.0982,-2.1019,-2.0984,-2.0975,-2.098,-2.0979,-2.1004,-2.1007,-2.1016,-2.1058,-2.106,-2.1024,-2.1025,-2.1026,-2.1027,0,0,0,0,0,0,0,-2.0915,-2.0921,-2.0978,-2.0963,-2.0963,-2.0958,-2.0961,-2.0989,-2.0996,-2.0976,-2.0975,-2.0979,-2.1004,-2.1014,-2.1017,-2.106,-2.1024,-2.1026,-2.1027,-2.1028,-2.1137,-2.1138,0,0,0,0,0,0,-2.0913,-2.0919,-2.0977,-2.0979,-2.0936,-2.096,-2.0964,-2.0979,-2.0996,-2.0997,-2.098,-2.0978,-2.101,-2.1014,-2.1018,-2.1066,-2.1026,-2.1029,-2.103,-2.1135,-2.1137,-2.1138,0,0,0,0,0,0,-2.0911,-2.0918,-2.0976,-2.0949,-2.0956,-2.0963,-2.098,-2.0981,-2.099,-2.0999,-2.1,-2.0989,-2.1009,-2.1014,-2.1047,-2.1067,-2.103,-2.1032,-2.1133,-2.1136,-2.1138,-2.1163,0,0,0,0,0,0,-2.0909,-2.0918,-2.0934,-2.0949,-2.0957,-2.1006,-2.0981,-2.0982,-2.0995,-2.0993,-2.1008,-2.1009,-2.1009,-2.1044,-2.105,-2.107,-2.1034,-2.1132,-2.1134,-2.1137,-2.1161,-2.1166,-2.1171,0,0,0,0,0,-2.0906,-2.094,-2.0935,-2.0942,-2.0978,-2.1007,-2.1011,-2.1011,-2.0997,-2.1012,-2.1018,-2.1009,-2.1064,-2.1047,-2.1054,-2.1075,-2.113,-2.1134,-2.1137,-2.1159,-2.1165,-2.1171,0,0,0,0,0,0,-2.0926,-2.0942,-2.0937,-2.0976,-2.099,-2.1004,-2.1024,-2.1018,-2.1036,-2.1033,-2.1031,-2.1034,-2.1068,-2.1075,-2.1056,-2.1115,-2.1095,-2.11,-2.1109,-2.1116,-2.112,-2.1118,-2.1036,0,0,0,0,0,-2.0935,-2.0958,-2.097,-2.1004,-2.1011,-2.1017,-2.1029,-2.1028,-2.1042,-2.1048,-2.1056,-2.1069,-2.109,-2.1103,-2.1122,-2.1162,-2.1164,-2.118,-2.1185,-2.1189,-2.1192,-2.1213,-2.1219,-2.1149,-2.1149,-2.1149,0,0,-2.0954,-2.0965,-2.098,-2.1008,-2.1019,-2.1042,-2.1022,-2.1047,-2.1064,-2.1051,-2.1083,-2.1089,-2.1104,-2.114,-2.1157,-2.1147,-2.1213,-2.1193,-2.1196,-2.1197,-2.1217,-2.1223,-2.1229,-2.1151,-2.115,-2.115,0,0,-2.1,-2.1011,-2.104,-2.1051,-2.1068,-2.1071,-2.1078,-2.1093,-2.1097,-2.1129,-2.112,-2.1139,-2.1174,-2.1185,-2.1195,-2.1245,-2.1236,-2.1251,-2.1277,-2.1297,-2.1302,-2.1307,-2.1324,-2.133,-2.1255,-2.1255,-2.1255,0,-2.1021,-2.1056,-2.1056,-2.1082,-2.1094,-2.1084,-2.1113,-2.1124,-2.1146,-2.1154,-2.1143,-2.1187,-2.1196,-2.1234,-2.1246,-2.1255,-2.1262,-2.1249,-2.1302,-2.1307,-2.1311,-2.1327,-2.1334,-2.1257,-2.1257,-2.1256,-2.1256,0,-2.108,-2.1105,-2.1126,-2.1148,-2.1163,-2.119,-2.1193,-2.1208,-2.1205,-2.1209,-2.1241,-2.1252,-2.1273,-2.1282,-2.1279,-2.132,-2.1313,-2.1302,-2.1282,-2.132,-2.1334,-2.1341,-2.1259,-2.1258,-2.1258,-2.1258,0,0,-2.1139,-2.1161,-2.1169,-2.1178,-2.1196,-2.1214,-2.1241,-2.1262,-2.1274,-2.129,-2.1311,-2.1341,-2.1331,-2.1342,-2.1341,-2.1358,-2.1396,-2.1345,-2.1345,-2.1353,-2.144,-2.1448,-2.1455,-2.1391,-2.1392,-2.1393,-2.1438,0,-2.1186,-2.1233,-2.1233,-2.1276,-2.1298,-2.1289,-2.1312,-2.1325,-2.1329,-2.1348,-2.1352,-2.1373,-2.1359,-2.1365,-2.1383,-2.1388,-2.1413,-2.1384,-2.1409,-2.141,-2.1405,-2.1463,-2.1471,-2.1514,-2.1444,-2.1445,-2.1446,0,-2.1246,-2.1264,-2.1309,-2.1323,-2.1333,-2.1353,-2.1372,-2.1391,-2.1405,-2.1406,-2.1419,-2.1415,-2.1441,-2.142,-2.1455,-2.1436,-2.1446,-2.145,-2.1451,-2.1453,-2.143,-2.1465,-2.1527,-2.1533,-2.1455,-2.1455,-2.1454,0,-2.1284,-2.1319,-2.1351,-2.1359,-2.1377,-2.1391,-2.1399,-2.1412,-2.1424,-2.1441,-2.1449,-2.1468,-2.1478,-2.1492,-2.1493,-2.1478,-2.1528,-2.1507,-2.1529,-2.1529,-2.1539,-2.1539,-2.1603,-2.1547,-2.1547,-2.1547,-2.1547,0,-2.1335,-2.1363,-2.1368,-2.1387,-2.1418,-2.1418,-2.1447,-2.1454,-2.1465,-2.1485,-2.1478,-2.1496,-2.1496,-2.1515,-2.1515,-2.1543,-2.1548,-2.155,-2.1549,-2.155,-2.155,-2.1556,-2.1553,-2.1549,-2.1548,-2.1548,-2.1548,0,-2.1382,-2.1387,-2.142,-2.1434,-2.1438,-2.146,-2.1471,-2.1489,-2.1493,-2.1518,-2.1523,-2.1529,-2.155,-2.1552,-2.1577,-2.1577,-2.1611,-2.1608,-2.1607,-2.1606,-2.1627,-2.1625,-2.1697,-2.1706,-2.1645,-2.1646,-2.1647,0,-2.1415,-2.1436,-2.1452,-2.1465,-2.1474,-2.1495,-2.1508,-2.1508,-2.1521,-2.1539,-2.1554,-2.1575,-2.1592,-2.1626,-2.1631,-2.165,-2.1647,-2.1671,-2.1649,-2.1649,-2.1646,-2.1644,-2.1646,-2.1675,-2.1675,-2.1676,-2.1676,0,-2.1471,-2.1472,-2.1492,-2.1512,-2.1527,-2.1543,-2.1557,-2.1568,-2.157,-2.1585,-2.1607,-2.162,-2.1645,-2.1665,-2.1683,-2.169,-2.1683,-2.1683,-2.1689,-2.1689,-2.1687,-2.1688,-2.1617,-2.1681,-2.1681,-2.1681,-2.168,-2.168,-2.1512,-2.153,-2.1544,-2.1565,-2.1576,-2.159,-2.1607,-2.1613,-2.1632,-2.1653,-2.1651,-2.1675,-2.1688,-2.1712,-2.172,-2.1738,-2.173,-2.1738,-2.174,-2.1742,-2.1744,-2.1685,-2.1741,-2.1741,-2.1741,-2.1741,-2.1741,0,-2.1567,-2.1576,-2.1596,-2.1616,-2.1633,-2.1626,-2.1641,-2.1655,-2.1676,-2.1689,-2.1706,-2.173,-2.175,-2.1757,-2.1776,-2.1789,-2.1786,-2.1794,-2.1792,-2.1794,-2.1751,-2.1744,-2.1796,-2.1796,-2.1796,-2.1796,-2.1796,-2.1795,-2.1598,-2.1628,-2.1631,-2.1666,-2.1674,-2.1698,-2.1707,-2.1719,-2.1729,-2.1758,-2.1774,-2.1779,-2.1789,-2.1808,-2.1826,-2.1827,-2.1834,-2.1843,-2.1843,-2.1802,-2.1797,-2.1792,-2.1785,-2.1844,-2.1844,-2.1884,-2.1884,-2.1885]}]]